Location: Roland
(31.1349°N, 85.4372°W)
Time: 21:48:54
(UTC+00:00)

Tiros 1 - Pass Details

Date: 20 April 2021
Orbit: 630 x 664 km, 48.4° (Epoch: 05 May)

Event Time Altitude Azimuth Distance (km) Brightness Sun altitude
Rises 14:32:34 0° 248° (WSW) 2,938 10.2 42.6°
Reaches altitude 10° 14:35:01 10° 256° (WSW) 2,025 9.4 43.1°
Maximum altitude 14:39:23 39° 325° (NW) 953 8.1 44.0°
Drops below altitude 10° 14:43:44 10° 35° (NE) 2,014 10.0 44.9°
Sets 14:46:11 0° 43° (NE) 2,920 10.8 45.4°
